SCP
0 0 0 0 0 0 0 0 0 0 0 0 0 0 0 0 0 0 0 0 0 0 0 0 0 0 0 1 1 1 2 2 4 4 3 2 1 1 1 1 2 2 6 5
0 0 0 0 0 0 0 0 0 0 0 0 0 0 0 0 0 0 0 0 0 0 0 0 0 0 0 1 1 1 0 2 2 2 2 1 1 1 1 2 2 3 5 5
0 0 0 0 0 0 0 0 0 0 0 0 0 0 0 -0 0 -0 0 0 0 0 0 0 0 0 0 1 2 2 2 2 2 2 3 2 1 2 3 3 3 5 5 5
0 0 0 0 0 0 0 0 0 0 0 0 0 0 0 0 0 0 0 0 0 0 0 0 0 0 0 1 1 1 1 0 0 0 2 2 2 2 2 3 5 5 5 4
0 -0 0 0 0 0 0 0 0 0 0 0 0 0 0 0 0 0 0 0 0 0 0 0 0 0 0 1 1 0 0 0 1 1 2 1 2 2 2 4 5 6 5 3
0 0 0 0 0 0 0 0 0 0 0 0 0 0 0 0 0 0 0 0 0 0 0 0 0 0 0 0 0 0 0 0 0 1 2 2 1 3 3 5 5 5 4 2
0 0 0 0 0 0 0 0 0 0 0 0 0 0 0 0 0 0 0 0 0 0 0 0 0 0 0 0 0 0 0 0 1 1 2 2 2 2 3 4 4 5 3 2
0 0 0 0 0 0 -0 0 0 0 0 0 0 0 0 0 0 0 0 -0 -0 -0 -0 0 0 0 0 0 0 0 0 0 0 1 1 3 5 3 3 3 4 4 2 2
0 0 0 0 0 0 0 0 0 0 0 0 0 0 0 0 0 0 0 0 0 0 0 0 0 0 0 0 0 0 0 0 0 1 3 2 3 3 3 3 4 2 1 1
0 0 0 0 0 0 0 0 0 0 0 0 0 0 0 0 0 -0 -0 0 0 0 0 0 0 0 1 2 1 1 0 1 1 2 3 3 3 4 2 3 2 1 1 1
0 0 0 0 0 0 -0 0 0 0 0 0 0 0 -0 -0 -0 -0 -0 0 0 0 0 0 0 1 2 1 1 1 0 0 1 4 4 3 3 2 2 3 2 1 1 1
0 0 0 0 0 0 -0 -0 0 0 0 0 0 -0 0 -0 -0 -0 -0 0 0 0 0 0 2 2 2 1 1 0 1 3 3 3 3 2 2 1 2 1 1 1 1 1
0 0 0 0 0 0 0 0 0 0 0 0 -0 -0 0 0 -0 -0 -0 0 0 0 0 0 0 2 1 1 0 1 3 3 2 2 1 1 1 1 1 1 0 0 0 0
0 0 0 0 0 0 0 0 0 0 0 0 0 -0 -0 -0 -0 -0 -0 0 0 0 0 0 0 1 1 1 1 2 2 2 2 1 1 1 1 1 1 0 0 0 0 0
0 0 0 0 0 0 0 0 -0 0 0 0 -0 -0 -0 -0 -0 -0 0 0 0 0 0 0 0 0 1 1 1 2 2 1 1 1 1 1 1 0 0 0 0 0 0 0
0 0 0 0 0 0 0 -0 0 0 0 0 0 -0 0 -0 -0 -0 -0 0 0 0 0 0 0 0 0 0 1 1 2 1 1 1 1 0 0 0 0 0 0 0 0 0
0 0 0 0 0 0 0 0 0 0 0 0 -0 -0 -0 -0 -0 -0 -0 -0 0 0 0 0 -0 -0 -1 -0 0 1 1 1 1 0 0 0 0 0 0 0 0 0 0 0
0 0 0 0 0 0 0 0 0 0 0 0 0 0 -0 0 0 0 0 -0 -0 0 0 0 -0 -0 -0 -0 0 0 1 0 0 0 0 0 0 0 0 0 0 0 0 0
0 0 0 0 0 0 0 0 0 0 0 0 0 -0 -0 0 0 0 0 0 -0 0 0 0 0 0 -0 -0 0 1 0 0 0 0 0 0 0 0 0 0 0 0 0 0
0 0 0 0 0 0 0 0 0 0 0 0 0 -0 0 0 0 0 0 0 0 0 0 0 0 0 -0 -0 0 0 0 0 0 0 0 0 0 0 0 0 0 0 0 0
0 0 0 0 0 0 0 0 0 0 0 0 0 0 -0 -0 0 0 0 0 0 0 0 0 0 0 -0 0 0 0 0 0 0 0 0 0 0 0 -0 0 0 0 0 0
0 0 0 0 0 0 0 0 0 0 0 -0 0 0 0 0 0 0 0 0 0 -0 0 0 0 0 0 0 0 0 0 0 0 0 0 0 0 0 -0 -0 0 0 0 0
0 0 0 0 0 0 0 0 0 0 0 0 0 0 0 0 0 -0 0 0 0 -0 -0 0 0 0 0 -0 0 0 0 0 0 0 0 0 -0 -0 -0 -0 -0 0 0 0
0 0 0 0 0 0 0 0 0 0 0 0 -0 -0 -0 -0 0 0 0 0 0 0 -0 0 0 0 -0 -0 0 0 0 0 0 0 0 -0 -0 -0 -0 -0 -0 -0 0 0
0 0 0 0 0 0 0 0 0 0 0 0 -0 -0 -0 -0 0 0 0 0 0 0 0 0 0 -0 0 -0 0 0 0 0 0 0 -0 -0 -0 -0 -0 -0 -0 0 0 0
0 0 0 0 -0 0 0 0 0 0 0 -0 -0 -0 -0 0 0 0 0 0 0 0 0 0 0 -0 0 0 0 0 0 0 0 0 0 0 -0 -0 -0 -0 -0 -0 0 0
Wind_Speed_500mb
21 6 10 23 20 16 16 25 28 31 25 30 26 30 41 37 47 44 67 66 67 82 86 80 96 73 75 75 76 74 67 57 51 53 56 54 56 52 53 62 57 52 55 57
13 12 16 17 17 15 16 28 33 29 21 29 24 39 40 36 38 54 61 62 71 83 85 75 88 98 88 80 82 79 75 75 73 71 71 67 63 62 57 56 52 45 51 57
12 19 23 26 24 25 16 16 23 30 25 30 20 31 47 51 46 54 68 68 67 78 88 84 84 85 95 76 86 87 84 78 69 65 58 62 67 65 60 50 50 51 47 57
12 18 24 19 26 27 23 24 33 31 18 19 12 31 22 36 50 42 57 65 69 70 74 99 98 95 65 70 68 80 69 67 67 64 62 63 70 68 63 57 49 56 50 53
18 23 13 14 20 20 26 35 39 41 27 11 14 15 34 19 39 45 42 64 77 74 71 81 90 87 81 49 64 69 69 65 65 58 57 59 64 62 55 46 55 58 54 50
24 39 8 5 12 17 27 22 35 25 6 20 23 22 35 32 33 42 45 67 79 81 67 61 93 78 74 70 56 65 64 62 61 67 61 63 62 63 54 44 56 58 52 45
15 18 5 7 4 11 13 12 9 9 5 17 22 23 29 25 27 37 40 66 68 84 96 78 73 89 75 72 73 67 65 67 68 72 64 68 66 65 58 57 63 62 55 44
5 11 19 5 8 11 8 8 9 11 12 22 19 13 24 31 35 53 68 67 70 79 94 93 73 84 75 73 71 71 63 60 66 74 72 73 79 68 56 64 67 64 55 46
11 10 26 29 29 28 14 12 21 13 22 6 10 22 24 29 28 43 55 72 83 81 87 53 48 74 57 48 42 48 61 71 76 74 73 81 81 69 64 62 62 62 46 36
9 29 13 25 31 21 11 17 13 9 11 12 11 25 13 27 35 43 45 65 91 81 92 10 11 18 26 33 38 38 40 45 75 71 69 79 71 60 64 63 66 57 43 35
12 5 16 20 7 18 14 9 5 7 5 5 9 5 4 18 14 25 35 68 80 84 90 22 20 17 24 30 36 38 44 40 56 57 64 61 56 53 60 60 56 52 48 42
10 6 11 32 32 23 12 15 7 4 5 8 8 15 14 16 12 21 40 73 74 74 79 39 9 11 15 28 49 61 46 53 54 53 51 45 46 62 62 59 58 59 52 45
5 7 11 12 4 1 2 9 13 9 8 10 14 11 14 14 20 26 29 58 73 72 92 77 34 12 29 32 39 46 57 55 53 51 44 52 62 62 65 67 63 55 48 44
3 8 12 15 26 23 34 37 30 14 7 14 22 38 28 14 17 23 47 54 68 84 83 81 63 20 30 24 39 60 58 53 47 48 53 62 67 65 71 65 59 52 45 39
7 11 17 28 36 39 40 37 35 34 27 16 16 25 18 5 5 8 24 45 57 78 90 90 31 29 25 20 60 62 59 55 51 57 60 61 58 55 56 51 46 42 39 37
10 8 11 26 38 33 38 34 30 27 20 14 21 20 22 13 7 20 26 45 63 75 81 36 27 31 28 23 40 54 64 58 63 61 56 54 53 54 51 43 38 35 36 34
13 8 1 11 24 35 18 7 11 15 18 20 20 12 22 24 23 26 38 46 53 53 74 43 32 39 43 42 18 52 68 66 66 57 55 56 53 51 44 42 39 39 37 37
11 9 5 11 20 7 6 6 6 12 12 20 13 15 23 27 41 48 55 23 53 62 73 69 41 40 46 59 15 67 65 68 64 57 53 52 46 46 45 43 42 39 38 33
13 8 5 5 4 27 23 9 7 11 13 9 8 15 30 43 42 37 12 40 47 55 63 63 54 52 43 40 27 58 63 71 65 52 49 50 50 46 44 42 45 41 40 39
20 14 3 3 7 9 7 5 16 4 9 15 16 14 13 35 20 18 64 68 61 59 60 59 57 65 62 32 37 50 66 65 51 57 49 50 51 42 38 36 38 38 38 37
6 4 10 11 11 14 4 8 13 4 10 24 12 16 21 14 23 57 67 64 52 55 58 59 62 51 54 48 25 55 61 55 59 53 48 51 47 41 39 37 36 30 34 34
4 8 8 7 6 13 16 4 6 16 37 40 18 21 30 34 45 48 55 59 62 60 55 58 57 46 50 52 20 48 55 55 52 53 54 50 47 42 36 30 30 28 35 42
7 8 6 10 10 8 11 27 56 57 55 35 33 24 28 38 46 44 48 57 56 57 58 51 54 50 48 50 31 40 50 49 59 57 55 53 43 36 30 27 28 34 37 43
9 23 9 19 4 3 33 48 29 8 22 40 49 48 37 52 48 41 49 55 54 54 56 54 50 48 54 51 37 52 52 61 63 61 58 42 37 30 28 25 25 30 35 38
25 22 16 23 34 15 17 20 16 24 38 42 44 42 42 50 55 55 58 52 62 56 52 50 44 39 41 57 35 49 51 73 71 63 53 47 39 35 35 31 27 22 22 24
8 8 7 6 43 21 26 21 15 26 32 45 53 57 53 51 54 52 56 54 51 50 56 49 42 40 43 36 46 55 51 76 73 66 54 50 43 38 33 31 30 23 18 20
Wind_Direction_500mb
330 355 257 241 242 255 290 299 295 303 324 326 302 292 294 305 299 304 261 244 234 232 244 261 259 259 255 247 227 222 219 221 208 217 232 240 249 254 261 265 265 260 259 253
319 232 250 313 322 322 317 306 301 303 297 289 307 300 294 297 291 293 293 282 238 233 235 245 252 253 260 252 230 221 222 225 231 225 233 240 248 256 262 265 264 261 253 250
323 295 321 320 316 313 281 271 290 286 289 282 301 287 295 294 288 287 287 287 278 234 229 232 241 253 253 249 232 221 215 221 230 233 237 246 256 261 258 251 251 250 249 244
292 292 300 342 327 321 305 316 311 300 283 274 226 277 261 290 294 294 294 294 280 278 246 233 237 245 271 241 222 212 216 225 237 238 241 252 257 255 251 239 245 244 242 241
260 283 281 274 298 355 311 333 304 300 285 313 282 281 285 298 290 292 288 288 290 278 264 250 239 238 241 231 216 220 219 222 232 236 246 266 254 248 251 247 234 235 240 240
247 257 52 70 6 320 315 338 310 287 273 266 276 253 273 272 274 271 278 282 286 288 275 256 239 239 244 244 230 210 213 222 241 252 262 261 250 245 239 232 227 232 229 234
350 335 118 92 356 284 341 6 338 328 315 269 280 281 272 274 294 296 298 295 297 293 289 276 243 238 240 238 230 223 229 233 244 250 250 249 246 243 239 229 228 231 223 227
275 330 318 35 224 236 276 200 210 252 268 280 295 257 277 279 284 285 282 294 290 285 281 279 254 231 230 234 235 246 240 234 241 245 250 251 247 237 234 226 229 229 228 229
348 311 325 323 322 321 280 265 263 288 286 287 252 266 274 349 9 350 345 340 335 333 290 254 260 230 215 209 224 236 245 246 245 245 244 239 235 231 230 220 225 223 226 219
314 306 289 317 329 305 245 287 324 4 315 290 291 287 290 9 354 348 344 339 327 324 316 191 147 171 187 205 216 229 239 248 239 232 233 229 221 226 227 218 216 215 216 201
9 25 304 314 288 325 5 356 41 180 241 246 275 284 90 50 16 336 331 329 325 330 332 281 215 247 222 234 237 244 246 242 222 217 214 218 224 221 207 204 203 207 202 188
19 266 292 298 288 138 162 235 244 219 217 263 233 268 122 122 65 21 324 327 324 322 319 317 146 200 248 251 246 244 234 213 209 207 208 214 204 190 192 193 196 196 189 181
21 310 318 307 129 176 203 242 241 237 241 239 283 271 241 67 25 20 5 326 325 318 309 349 330 301 306 265 224 225 199 195 193 195 202 188 188 190 188 188 185 178 175 174
256 215 218 256 269 274 281 285 282 181 229 276 271 306 13 40 2 36 11 322 334 318 326 318 308 334 312 260 199 177 181 182 186 186 182 180 181 183 180 181 173 172 174 175
180 246 258 275 283 286 286 291 298 299 242 251 314 280 354 127 280 85 329 310 294 305 303 290 309 352 312 238 186 178 176 175 176 173 176 174 175 179 177 175 178 182 180 171
145 266 307 294 286 268 268 271 259 281 331 351 315 314 3 32 311 274 269 289 287 285 303 331 343 345 329 288 207 177 171 164 170 171 173 172 171 173 173 173 164 162 160 173
209 201 10 263 310 304 291 59 4 320 341 335 297 331 340 333 318 317 318 312 315 331 343 341 344 330 358 330 199 175 164 159 163 164 170 169 170 170 170 161 159 170 167 174
179 124 141 277 303 286 125 71 282 322 328 339 325 332 322 325 313 301 295 319 326 335 334 344 348 343 357 329 269 180 162 162 164 165 171 170 173 164 162 160 168 169 173 183
136 162 203 257 277 269 280 86 0 340 312 272 203 319 318 313 313 299 310 339 324 324 328 330 339 339 338 330 300 171 161 157 155 156 162 162 165 165 164 173 174 172 180 184
82 87 133 18 277 262 258 54 9 109 263 182 191 274 344 326 309 306 307 322 320 316 317 315 329 333 337 320 326 172 153 150 149 154 158 162 168 168 170 164 166 184 186 191
168 176 228 236 242 275 12 49 42 85 237 201 209 271 281 270 281 299 301 304 299 301 310 301 323 327 332 321 196 172 150 154 155 156 159 167 166 164 168 166 180 193 193 189
245 192 202 222 235 267 174 108 198 241 301 291 249 243 264 277 289 294 292 291 295 298 297 302 310 328 322 317 230 163 154 160 153 158 164 167 162 164 171 183 183 186 181 171
310 162 217 198 233 238 309 250 254 273 276 303 298 281 262 271 284 288 283 281 289 291 288 287 301 319 321 310 221 172 159 158 156 159 157 156 155 161 165 175 180 172 172 178
298 310 291 309 255 252 274 276 299 296 314 313 307 306 305 303 295 288 277 279 273 281 277 287 302 324 318 313 224 177 163 162 160 153 150 148 148 150 147 141 160 169 173 180
273 296 315 274 286 291 294 339 292 309 318 317 310 310 306 300 290 286 278 274 273 271 282 288 312 304 297 289 219 176 162 165 160 156 154 154 152 156 150 153 152 143 164 178
232 204 257 288 291 265 286 281 312 316 316 316 306 299 297 290 289 279 272 270 272 276 276 287 289 284 290 271 195 180 173 169 162 154 153 154 157 161 158 160 159 156 153 155
Wind_Speed_850mb
21 6 10 23 20 16 16 25 28 31 25 30 26 30 41 37 47 44 67 66 67 82 86 80 96 73 75 75 76 74 67 57 51 53 56 54 56 52 53 62 57 52 55 57
13 12 16 17 17 15 16 28 33 29 21 29 24 39 40 36 38 54 61 62 71 83 85 75 88 98 88 80 82 79 75 75 73 71 71 67 63 62 57 56 52 45 51 57
12 19 23 26 24 25 16 16 23 30 25 30 20 31 47 51 46 54 68 68 67 78 88 84 84 85 95 76 86 87 84 78 69 65 58 62 67 65 60 50 50 51 47 57
12 18 24 19 26 27 23 24 33 31 18 19 12 31 22 36 50 42 57 65 69 70 74 99 98 95 65 70 68 80 69 67 67 64 62 63 70 68 63 57 49 56 50 53
18 23 13 14 20 20 26 35 39 41 27 11 14 15 34 19 39 45 42 64 77 74 71 81 90 87 81 49 64 69 69 65 65 58 57 59 64 62 55 46 55 58 54 50
24 39 8 5 12 17 27 22 35 25 6 20 23 22 35 32 33 42 45 67 79 81 67 61 93 78 74 70 56 65 64 62 61 67 61 63 62 63 54 44 56 58 52 45
15 18 5 7 4 11 13 12 9 9 5 17 22 23 29 25 27 37 40 66 68 84 96 78 73 89 75 72 73 67 65 67 68 72 64 68 66 65 58 57 63 62 55 44
5 11 19 5 8 11 8 8 9 11 12 22 19 13 24 31 35 53 68 67 70 79 94 93 73 84 75 73 71 71 63 60 66 74 72 73 79 68 56 64 67 64 55 46
11 10 26 29 29 28 14 12 21 13 22 6 10 22 24 29 28 43 55 72 83 81 87 53 48 74 57 48 42 48 61 71 76 74 73 81 81 69 64 62 62 62 46 36
9 29 13 25 31 21 11 17 13 9 11 12 11 25 13 27 35 43 45 65 91 81 92 10 11 18 26 33 38 38 40 45 75 71 69 79 71 60 64 63 66 57 43 35
12 5 16 20 7 18 14 9 5 7 5 5 9 5 4 18 14 25 35 68 80 84 90 22 20 17 24 30 36 38 44 40 56 57 64 61 56 53 60 60 56 52 48 42
10 6 11 32 32 23 12 15 7 4 5 8 8 15 14 16 12 21 40 73 74 74 79 39 9 11 15 28 49 61 46 53 54 53 51 45 46 62 62 59 58 59 52 45
5 7 11 12 4 1 2 9 13 9 8 10 14 11 14 14 20 26 29 58 73 72 92 77 34 12 29 32 39 46 57 55 53 51 44 52 62 62 65 67 63 55 48 44
3 8 12 15 26 23 34 37 30 14 7 14 22 38 28 14 17 23 47 54 68 84 83 81 63 20 30 24 39 60 58 53 47 48 53 62 67 65 71 65 59 52 45 39
7 11 17 28 36 39 40 37 35 34 27 16 16 25 18 5 5 8 24 45 57 78 90 90 31 29 25 20 60 62 59 55 51 57 60 61 58 55 56 51 46 42 39 37
10 8 11 26 38 33 38 34 30 27 20 14 21 20 22 13 7 20 26 45 63 75 81 36 27 31 28 23 40 54 64 58 63 61 56 54 53 54 51 43 38 35 36 34
13 8 1 11 24 35 18 7 11 15 18 20 20 12 22 24 23 26 38 46 53 53 74 43 32 39 43 42 18 52 68 66 66 57 55 56 53 51 44 42 39 39 37 37
11 9 5 11 20 7 6 6 6 12 12 20 13 15 23 27 41 48 55 23 53 62 73 69 41 40 46 59 15 67 65 68 64 57 53 52 46 46 45 43 42 39 38 33
13 8 5 5 4 27 23 9 7 11 13 9 8 15 30 43 42 37 12 40 47 55 63 63 54 52 43 40 27 58 63 71 65 52 49 50 50 46 44 42 45 41 40 39
20 14 3 3 7 9 7 5 16 4 9 15 16 14 13 35 20 18 64 68 61 59 60 59 57 65 62 32 37 50 66 65 51 57 49 50 51 42 38 36 38 38 38 37
6 4 10 11 11 14 4 8 13 4 10 24 12 16 21 14 23 57 67 64 52 55 58 59 62 51 54 48 25 55 61 55 59 53 48 51 47 41 39 37 36 30 34 34
4 8 8 7 6 13 16 4 6 16 37 40 18 21 30 34 45 48 55 59 62 60 55 58 57 46 50 52 20 48 55 55 52 53 54 50 47 42 36 30 30 28 35 42
7 8 6 10 10 8 11 27 56 57 55 35 33 24 28 38 46 44 48 57 56 57 58 51 54 50 48 50 31 40 50 49 59 57 55 53 43 36 30 27 28 34 37 43
9 23 9 19 4 3 33 48 29 8 22 40 49 48 37 52 48 41 49 55 54 54 56 54 50 48 54 51 37 52 52 61 63 61 58 42 37 30 28 25 25 30 35 38
25 22 16 23 34 15 17 20 16 24 38 42 44 42 42 50 55 55 58 52 62 56 52 50 44 39 41 57 35 49 51 73 71 63 53 47 39 35 35 31 27 22 22 24
8 8 7 6 43 21 26 21 15 26 32 45 53 57 53 51 54 52 56 54 51 50 56 49 42 40 43 36 46 55 51 76 73 66 54 50 43 38 33 31 30 23 18 20
Wind_Direction_850mb
330 355 257 241 242 255 290 299 295 303 324 326 302 292 294 305 299 304 261 244 234 232 244 261 259 259 255 247 227 222 219 221 208 217 232 240 249 254 261 265 265 260 259 253
319 232 250 313 322 322 317 306 301 303 297 289 307 300 294 297 291 293 293 282 238 233 235 245 252 253 260 252 230 221 222 225 231 225 233 240 248 256 262 265 264 261 253 250
323 295 321 320 316 313 281 271 290 286 289 282 301 287 295 294 288 287 287 287 278 234 229 232 241 253 253 249 232 221 215 221 230 233 237 246 256 261 258 251 251 250 249 244
292 292 300 342 327 321 305 316 311 300 283 274 226 277 261 290 294 294 294 294 280 278 246 233 237 245 271 241 222 212 216 225 237 238 241 252 257 255 251 239 245 244 242 241
260 283 281 274 298 355 311 333 304 300 285 313 282 281 285 298 290 292 288 288 290 278 264 250 239 238 241 231 216 220 219 222 232 236 246 266 254 248 251 247 234 235 240 240
247 257 52 70 6 320 315 338 310 287 273 266 276 253 273 272 274 271 278 282 286 288 275 256 239 239 244 244 230 210 213 222 241 252 262 261 250 245 239 232 227 232 229 234
350 335 118 92 356 284 341 6 338 328 315 269 280 281 272 274 294 296 298 295 297 293 289 276 243 238 240 238 230 223 229 233 244 250 250 249 246 243 239 229 228 231 223 227
275 330 318 35 224 236 276 200 210 252 268 280 295 257 277 279 284 285 282 294 290 285 281 279 254 231 230 234 235 246 240 234 241 245 250 251 247 237 234 226 229 229 228 229
348 311 325 323 322 321 280 265 263 288 286 287 252 266 274 349 9 350 345 340 335 333 290 254 260 230 215 209 224 236 245 246 245 245 244 239 235 231 230 220 225 223 226 219
314 306 289 317 329 305 245 287 324 4 315 290 291 287 290 9 354 348 344 339 327 324 316 191 147 171 187 205 216 229 239 248 239 232 233 229 221 226 227 218 216 215 216 201
9 25 304 314 288 325 5 356 41 180 241 246 275 284 90 50 16 336 331 329 325 330 332 281 215 247 222 234 237 244 246 242 222 217 214 218 224 221 207 204 203 207 202 188
19 266 292 298 288 138 162 235 244 219 217 263 233 268 122 122 65 21 324 327 324 322 319 317 146 200 248 251 246 244 234 213 209 207 208 214 204 190 192 193 196 196 189 181
21 310 318 307 129 176 203 242 241 237 241 239 283 271 241 67 25 20 5 326 325 318 309 349 330 301 306 265 224 225 199 195 193 195 202 188 188 190 188 188 185 178 175 174
256 215 218 256 269 274 281 285 282 181 229 276 271 306 13 40 2 36 11 322 334 318 326 318 308 334 312 260 199 177 181 182 186 186 182 180 181 183 180 181 173 172 174 175
180 246 258 275 283 286 286 291 298 299 242 251 314 280 354 127 280 85 329 310 294 305 303 290 309 352 312 238 186 178 176 175 176 173 176 174 175 179 177 175 178 182 180 171
145 266 307 294 286 268 268 271 259 281 331 351 315 314 3 32 311 274 269 289 287 285 303 331 343 345 329 288 207 177 171 164 170 171 173 172 171 173 173 173 164 162 160 173
209 201 10 263 310 304 291 59 4 320 341 335 297 331 340 333 318 317 318 312 315 331 343 341 344 330 358 330 199 175 164 159 163 164 170 169 170 170 170 161 159 170 167 174
179 124 141 277 303 286 125 71 282 322 328 339 325 332 322 325 313 301 295 319 326 335 334 344 348 343 357 329 269 180 162 162 164 165 171 170 173 164 162 160 168 169 173 183
136 162 203 257 277 269 280 86 0 340 312 272 203 319 318 313 313 299 310 339 324 324 328 330 339 339 338 330 300 171 161 157 155 156 162 162 165 165 164 173 174 172 180 184
82 87 133 18 277 262 258 54 9 109 263 182 191 274 344 326 309 306 307 322 320 316 317 315 329 333 337 320 326 172 153 150 149 154 158 162 168 168 170 164 166 184 186 191
168 176 228 236 242 275 12 49 42 85 237 201 209 271 281 270 281 299 301 304 299 301 310 301 323 327 332 321 196 172 150 154 155 156 159 167 166 164 168 166 180 193 193 189
245 192 202 222 235 267 174 108 198 241 301 291 249 243 264 277 289 294 292 291 295 298 297 302 310 328 322 317 230 163 154 160 153 158 164 167 162 164 171 183 183 186 181 171
310 162 217 198 233 238 309 250 254 273 276 303 298 281 262 271 284 288 283 281 289 291 288 287 301 319 321 310 221 172 159 158 156 159 157 156 155 161 165 175 180 172 172 178
298 310 291 309 255 252 274 276 299 296 314 313 307 306 305 303 295 288 277 279 273 281 277 287 302 324 318 313 224 177 163 162 160 153 150 148 148 150 147 141 160 169 173 180
273 296 315 274 286 291 294 339 292 309 318 317 310 310 306 300 290 286 278 274 273 271 282 288 312 304 297 289 219 176 162 165 160 156 154 154 152 156 150 153 152 143 164 178
232 204 257 288 291 265 286 281 312 316 316 316 306 299 297 290 289 279 272 270 272 276 276 287 289 284 290 271 195 180 173 169 162 154 153 154 157 161 158 160 159 156 153 155